User: anonymous   Login
Location: Unspecified
(0.0000°N, 0.0000°E)
Time: 22:20:18
(UTC+00:00)
Language:

SO-50 - Orbit

View from above orbital plane
View from above orbital plane
View from above satellite
View from above satellite

Ground track
Ground track

The orbit data is extracted from the following two-line orbital elements,

1 27607U 02058C   17327.22700006  .00000079  00000-0  31988-4 0  9993
2 27607  64.5561 359.5413 0039899  23.7027 336.5902 14.75393480802574
Epoch (UTC): 23 November 2017 05:26:52
Eccentricity: 0.0039899
inclination: 64.5561°
perigee height: 616 km
apogee height: 672 km
right ascension of ascending node: 359.5413°
argument of perigee: 23.7027°
revolutions per day: 14.75393480
mean anomaly at epoch: 336.5902°
orbit number at epoch: 80257

The dashed part of the orbit path shows where the satellite is in the earth's shadow,  

DLR